Tracking 29892 objects as of 21-Nov-2024
HD Live streaming from Space Station
objects crossing your sky now

STARLINK-3861

Track STARLINK-3861 now!
10-day predictions
STARLINK-3861 is classified as:


NORAD ID: 52503
Int'l Code: 2022-049BE
Perigee: 545.8 km
Apogee: 548.0 km
Inclination: 53.2 °
Period: 95.4 minutes
Semi major axis: 6917 km
RCS: Unknown
Launch date: May 6, 2022
Source: United States (US)
Launch site: AIR FORCE EASTERN TEST RANGE (AFETR)
Your satellite tracking list
Your tracking list is empty




NASA's NSSDC Master Catalog

Two Line Element Set (TLE):
1 52503U 22049BE  24325.49464302 -.00000257  00000-0  19529-5 0  9996
2 52503  53.2177   7.7512 0001544  86.9046 273.2123 15.08839960141107
Source of the keplerian elements: AFSPC